Погода в Такоме

США     47°14′53″N   122°27′51″W
темп.,
°C
ветер,
м/с
пор.,
м/с
влажн.,
%
обл.,
%
осадки,
мм/ч
давл.,
гПа
погр.,
м
24 июля, сб
сб2423:00+18с14650 0.0 1022148
02:00+16св13780 0.0 1022137
05:00+14ссв13880 0.0 1022110
08:00+18ссв24700 0.0 1022426
11:00+25с34450 0.0 10211008
14:00+30с34320 0.0 10181488
17:00+30ссв43300 0.0 10171514
20:00+24ссв47450 0.0 1016441
25 июля, вс
вс2523:00+18ссз24650 0.0 1017136
02:00+15сз12800 0.0 101864
05:00+13з11890 0.0 101842
08:00+17зюз11720 0.0 1019341
11:00+26з11445 0.0 1018874
14:00+31зсз11322 0.0 10161540
17:00+31зсз22290 0.0 10132069
20:00+26ссз35390 0.0 1014417
26 июля, пн
пн2623:00+18ссз13570 0.0 1016149
02:00+14зсз1170100 0.0 101667
05:00+13юз1180100 0.0 101651
08:00+16юз1165100 0.0 1017290
11:00+25с1140100 0.0 1016828
14:00+30ссз22302 0.0 10141523
17:00+31с3229100 0.0 10132096
20:00+25ссв3639100 0.0 1013383
27 июля, вт
вт2723:00+18сз2363100 0.0 1015128
02:00+15з128299 0.0 101668
05:00+14зюз11895 0.0 101748
08:00+17зюз117599 0.0 1018328
11:00+25зюз0146100 0.0 1018869
14:00+30зсз1132100 0.0 10171437
17:00+29юз2132100 0.0 10171666
20:00+25зсз354390 0.0 1018411
28 июля, ср
ср2823:00+17зюз13650 0.0 102088
02:00+14з11795 0.0 102170
05:00+13зюз11850 0.0 102149
08:00+17з11640 0.0 1022267
11:00+26с12372 0.0 1022829
14:00+31с22279 0.0 10201511
17:00+31ссв5416100 0.0 10191390
20:00+24ссв3932100 0.0 1019392